Miscellaneous Local Product
Issued by NWS Hastings, NE

Home | Current Version | Previous Version | Graphics & Text | Print | Product List | Glossary On
Versions: 1 2 3 4 5 6 7 8 9 10 11 12 13 14 15 16 17 18 19 20 21 22 23 24 25 26 27 28 29 30 31 32 33 34 35 36 37 38 39 40 41 42 43 44 45 46 47 48 49 50
000
AXUS43 KGID 120702
MISGRI

GID CWA HOURLY WEATHER ROUNDUP
NATIONAL WEATHER SERVICE HASTINGS NE
200 AM CDT SAT JUL 12 2014

NOTE: "FAIR" INDICATES FEW OR NO CLOUDS BELOW 12,000 FEET WITH NO
SIGNIFICANT WEATHER AND/OR OBSTRUCTIONS TO VISIBILITY.

...SOUTH CENTRAL NEBRASKA...

CITY           SKY/WX    TMP DP  RH WIND       PRES   REMARKS
GRAND ISLAND   CLOUDY    79  64  60 S9        29.99S
HASTINGS       MOCLDY    77  61  57 S8        30.00S
KEARNEY        CLOUDY    79  63  57 SW12G18   30.01R
ORD            LGT RAIN  73  71  93 N7        30.01S FOG
YORK           MOCLDY    75  68  78 S9        29.99S
AURORA         MOCLDY    77  67  71 S10G16    29.99S
LEXINGTON      CLOUDY    75  64  67 S7        30.00R
HOLDREGE       CLOUDY    75  60  59 SW9       30.02R
HEBRON         MOCLDY    80  64  57 S10G17    29.99F

...NEBRASKA PANHANDLE...

CITY           SKY/WX    TMP DP  RH WIND       PRES   REMARKS
CHADRON        CLOUDY    65  59  81 SE5       30.14S
ALLIANCE       CLOUDY    60  58  92 NE7       30.15F
SCOTTSBLUFF    MOCLDY    62  61  96 SW8       30.18R
SIDNEY         CLOUDY    65  62  90 N13       30.16R

...WESTERN AND NORTH CENTRAL NEBRASKA...

CITY           SKY/WX    TMP DP  RH WIND       PRES   REMARKS
VALENTINE      CLOUDY    69  65  86 CALM      30.06F
AINSWORTH      CLOUDY    68  65  92 SE8       30.07S
ONEILL         TSTM      70  66  89 SE7       30.07F
BROKEN BOW     LGT RAIN  74  73  97 N14       30.05R FOG
IMPERIAL       CLOUDY    71  62  73 N13       30.02F
NORTH PLATTE   CLOUDY    68  65  90 S3        30.03S
MCCOOK         CLOUDY    76  70  82 SW5       30.02S

...EASTERN NEBRASKA...

CITY           SKY/WX    TMP DP  RH WIND       PRES   REMARKS
NORFOLK        MOCLDY    73  68  84 NE8       30.02R
SO SIOUX CITY  TSTM      70  69  97 NW5       30.02R FOG
TEKAMAH        CLOUDY    75  70  84 N18       30.00R
ALBION         CLOUDY    73  69  88 CALM      30.04R
OMAHA EPPLEY   MOCLDY    77  73  87 SE5       29.97S
OFFUTT AFB     CLOUDY    74  74 100 VRB2      29.97S
MILLARD        MOCLDY    76  74  92 CALM      29.98R
LINCOLN        PTCLDY    80  66  62 SW5       29.98S
NEBRASKA CITY  PTCLDY    79  67  67 SW15G22   29.98S
BEATRICE       MOCLDY    76  65  68 S12       29.98F
FALLS CITY     CLEAR     78  70  76 S10       30.00S

...NORTHERN KANSAS...

CITY           SKY/WX    TMP DP  RH WIND       PRES   REMARKS
GOODLAND       CLOUDY    68  62  81 CALM      30.10F
HILL CITY      MOCLDY    79  58  48 S16G24    30.01S
NORTON         SUNNY     79  52  38 SW10      30.02R
PHILLIPSBURG   CLEAR     81  57  44 S12       30.00R
SMITH CENTER   CLEAR     73  63  68 S7        30.01S
BELOIT         CLEAR     77  63  61 S13       29.98F
HAYS           CLEAR     73  55  53 S15       30.02F
RUSSELL        CLEAR     75  63  66 S18       30.01F
CONCORDIA      PTCLDY    77  65  66 S17       30.00F
SALINA         CLEAR     80  64  58 S13       30.03F
TOPEKA         PTCLDY    80  70  71 S7        30.04F



USA.gov is the U.S. government's official web portal to all federal, state and local government web resources and services.